Location: Unspecified
(42.3650°N, 71.1030°W)
Time: 06:37:47
(UTC+00:00)

ZACube-1 - Visible Passes

Search period start: 16 July 2024 00:00
Search period end: 26 July 2024 00:00
Orbit: 563 x 635 km, 97.7° (Epoch: 15 July)

Date Brightness Start Highest point End Pass type
(mag) Time Alt. Az. Time Alt. Az. Time Alt. Az.
16 Jul ? 07:11:38 10° NNE 07:15:29 37° E 07:18:11 18° SSE visible
17 Jul ? 07:22:19 10° NNE 07:26:21 49° E 07:29:06 19° SSE visible
18 Jul ? 07:33:03 10° NNE 07:37:11 67° ESE 07:40:00 20° S visible
19 Jul ? 07:43:49 10° NNE 07:47:59 89° E 07:50:52 20° SSW visible
20 Jul ? 06:22:25 10° E 06:22:39 10° E 06:22:53 10° E visible
20 Jul ? 07:54:37 10° N 07:58:46 69° WNW 08:01:44 19° SSW visible
21 Jul ? 06:31:25 10° ENE 06:33:32 14° E 06:35:41 10° ESE visible
21 Jul ? 08:05:27 10° N 08:09:30 52° WNW 08:12:36 17° SW visible
22 Jul ? 06:41:30 10° NE 06:44:24 18° E 06:46:42 12° SE visible
22 Jul ? 08:16:19 10° N 08:20:14 39° WNW 08:23:26 15° SW visible
23 Jul ? 06:51:50 10° NE 06:55:13 23° E 06:57:32 15° SE visible
23 Jul ? 08:27:14 10° N 08:30:55 31° WNW 08:34:15 12° SW visible
24 Jul ? 07:02:17 10° NE 07:06:01 30° E 07:08:20 18° SE visible
24 Jul ? 08:38:11 10° NNW 08:41:34 24° WNW 08:45:00 10° WSW visible
25 Jul ? 07:12:47 10° NNE 07:16:47 39° E 07:19:07 21° SSE visible
25 Jul ? 08:49:13 10° NNW 08:52:12 19° WNW 08:55:13 10° WSW visible
